Theta_e
331 329 327 327 327 328 329 329 330 330 331 334 335 335 335 334 336 344 348 353 353 354 355 353 352 352 352 353 354 355 358 359 360 361 361 360 360 359 356 354 347 344 343 341
332 330 330 329 328 328 328 328 329 330 332 333 334 334 335 337 341 342 348 351 353 355 357 358 355 355 354 355 356 357 359 361 361 362 360 359 357 356 353 348 346 344 342 339
331 330 329 331 331 330 330 329 329 330 331 331 332 334 335 338 338 339 342 347 353 355 357 357 357 356 356 357 359 361 362 363 363 360 357 354 352 352 349 348 347 344 339 338
331 330 332 330 329 329 329 329 330 331 331 333 334 334 335 338 340 340 341 343 351 353 354 355 355 356 357 360 362 363 363 362 357 354 353 351 350 351 351 348 344 339 338 337
330 332 332 330 331 330 330 331 330 331 332 332 333 334 336 337 338 341 342 345 351 350 352 354 356 359 361 361 360 361 360 358 355 354 353 351 350 349 346 342 340 338 337 337
328 330 332 330 331 332 331 334 332 332 332 333 334 335 335 341 339 342 343 350 352 351 354 356 359 359 359 360 359 358 358 357 354 354 353 351 349 345 343 341 339 336 337 337
325 327 329 329 331 332 336 333 333 334 335 335 337 338 345 346 345 348 350 351 352 352 354 356 357 357 356 354 353 353 353 354 353 353 352 351 346 343 341 340 338 337 337 336
325 327 329 333 338 336 335 336 343 342 340 338 339 347 346 348 351 352 354 354 353 354 354 353 351 348 348 350 351 352 353 353 353 353 352 348 345 343 341 339 339 338 337 335
326 327 332 329 340 337 344 345 345 345 342 341 346 346 348 352 353 353 352 349 347 349 350 351 350 349 349 350 351 350 351 352 350 350 348 347 344 342 340 339 337 336 336 334
327 327 329 334 339 343 343 345 345 343 344 344 347 348 351 351 349 347 344 342 339 337 338 339 343 348 351 349 348 347 347 348 348 348 346 345 343 342 340 338 336 335 334 334
332 330 333 338 341 343 345 345 343 343 343 344 344 343 339 336 334 333 332 330 330 330 331 333 334 335 339 345 347 348 347 346 347 345 345 343 339 339 338 337 336 335 333 333
332 333 340 336 342 345 345 343 342 342 341 340 337 334 333 334 333 331 330 329 329 330 330 331 333 334 336 338 341 344 344 341 340 340 340 338 333 332 334 331 329 327 326 328
341 340 340 344 343 343 343 341 340 339 336 334 333 333 333 333 331 329 329 329 329 329 330 331 333 335 337 338 338 340 339 339 337 338 337 335 331 331 329 323 324 324 324 325
337 338 341 343 345 342 340 338 332 331 332 332 332 331 330 331 329 329 328 327 327 328 330 332 332 334 335 335 337 337 335 336 337 337 336 335 335 333 332 329 327 317 316 312
338 336 339 339 339 338 334 331 332 332 330 330 328 328 326 329 329 328 327 328 328 328 330 333 335 336 336 336 336 335 334 334 334 333 333 333 333 332 332 330 324 317 312 310
335 334 334 333 332 331 331 330 330 330 330 330 329 328 327 326 325 326 327 327 327 329 330 332 334 335 335 335 335 334 334 334 334 333 332 332 332 332 331 330 326 320 316 314
333 335 332 331 330 330 329 328 328 327 326 327 326 325 325 325 325 326 326 327 330 330 332 333 334 334 334 333 332 331 331 332 331 331 331 330 330 330 330 329 326 322 319 316
330 329 329 329 330 330 330 329 330 330 331 329 328 328 329 329 330 329 328 329 330 331 332 333 333 332 331 331 330 329 329 330 330 330 330 330 330 330 329 328 327 323 320 314
331 331 331 331 331 331 331 332 332 331 331 330 329 330 330 329 329 330 330 330 331 333 334 331 325 328 328 325 327 327 327 327 328 328 328 328 329 329 328 328 325 322 320 315
329 329 329 329 328 328 329 328 328 328 329 330 330 331 331 331 330 331 332 332 332 332 332 328 330 330 329 325 324 326 328 327 327 327 328 327 328 327 327 326 325 323 320 315
326 327 326 326 326 325 326 326 326 327 326 326 328 329 330 331 331 332 331 329 332 331 331 327 329 327 327 326 325 326 326 327 327 327 327 327 327 326 325 324 322 320 319 316
325 324 323 323 323 323 324 324 325 325 325 327 328 328 328 329 330 331 332 331 331 328 328 328 326 324 325 324 326 326 325 325 324 324 325 326 326 326 324 322 320 318 315 313
323 322 323 323 324 323 323 323 323 323 325 326 328 329 328 328 328 328 331 330 329 326 327 325 319 318 319 324 325 324 323 323 323 324 324 324 325 322 322 322 320 317 314 311
320 321 322 323 324 324 326 324 323 323 323 324 325 326 327 326 325 326 327 326 326 324 325 319 319 322 323 321 319 320 321 323 323 323 319 320 321 318 315 314 313 313 313 311
320 320 319 317 317 317 318 320 323 323 323 322 322 321 321 320 325 324 325 323 322 322 321 316 317 317 319 319 318 317 318 319 318 316 315 316 315 317 318 317 315 314 312 311
321 321 321 322 320 318 317 316 316 318 322 319 320 316 317 319 320 324 323 323 322 321 321 316 317 317 318 317 316 316 316 313 313 314 314 314 313 313 314 314 312 311 310 309
321 320 320 319 319 319 318 317 317 316 315 318 319 317 314 318 317 316 316 316 317 318 318 318 316 315 315 315 315 315 315 314 313 312 312 312 311 311 311 310 309 309 308 307
Wind_Speed
24 22 19 21 22 20 24 24 23 22 26 22 20 14 15 11 12 10 10 13 14 14 13 17 20 20 21 21 21 20 20 19 20 18 19 21 21 19 18 18 14 13 12 11
21 21 20 19 19 21 26 25 24 24 20 12 16 17 10 10 12 13 13 15 14 15 15 15 22 22 21 20 20 18 17 15 14 15 16 17 18 16 17 16 16 13 13 13
17 21 21 23 31 29 25 21 20 22 17 16 16 17 15 14 14 14 16 15 15 16 16 18 19 19 18 16 16 17 16 13 11 11 12 14 17 18 18 17 16 14 13 13
13 15 25 21 24 26 25 23 22 21 19 14 16 15 17 12 12 15 17 15 11 12 15 17 17 18 19 18 17 16 14 12 13 13 14 15 18 16 16 15 15 14 13 12
12 17 14 24 4 17 20 26 25 24 21 21 19 17 20 18 18 19 14 11 10 15 18 20 20 21 22 20 18 17 16 14 14 14 15 16 15 12 12 12 13 13 13 13
11 22 29 18 13 14 16 19 19 22 23 23 20 17 14 17 11 9 8 10 13 17 21 21 22 21 21 19 18 17 15 14 14 16 18 19 17 16 14 13 14 14 13 13
17 17 14 14 16 13 19 9 17 19 21 22 18 16 4 3 5 6 7 11 18 19 21 21 22 22 21 20 18 18 18 17 18 21 24 24 28 24 17 14 13 13 12 11
18 22 25 1 5 16 13 11 5 6 9 13 14 6 5 7 9 11 14 15 19 21 22 21 19 19 18 16 12 12 9 10 12 15 18 19 21 22 16 15 14 12 12 12
18 17 4 23 18 10 3 3 2 4 4 8 10 9 12 13 14 15 17 19 21 23 23 21 17 17 18 14 13 10 8 6 8 13 15 18 18 18 17 16 14 14 14 11
16 21 18 15 15 10 9 8 4 4 9 13 15 16 17 16 16 16 18 19 21 22 20 20 19 18 17 12 11 11 10 5 8 13 15 16 17 16 15 15 15 12 11 9
17 14 14 14 13 10 7 7 9 12 15 18 23 22 22 18 16 14 19 21 20 21 19 18 17 16 13 12 11 10 8 10 11 14 11 9 9 9 7 8 10 10 7 6
13 15 14 17 15 12 12 13 16 21 22 21 21 23 22 19 17 18 18 20 21 21 20 18 16 15 12 9 8 10 11 9 6 2 14 13 11 10 10 8 10 8 7 5
10 11 15 6 13 14 15 16 17 19 24 24 20 18 19 18 18 22 21 21 20 20 20 19 17 14 11 8 6 8 9 6 15 10 9 11 12 12 12 8 4 4 7 11
15 11 9 16 16 17 20 19 18 20 18 19 19 20 20 16 18 18 17 17 19 17 18 15 15 16 11 7 8 6 9 8 6 8 10 11 12 10 10 10 9 12 18 18
14 15 9 13 18 20 21 22 22 19 18 17 18 16 16 13 12 14 14 15 16 13 12 12 17 10 9 9 4 5 5 6 6 8 9 9 9 9 9 10 14 17 19 18
18 14 18 20 21 22 23 22 20 17 15 13 13 12 14 16 15 13 12 12 13 11 11 12 14 7 7 4 6 7 7 9 6 6 7 8 9 9 9 11 15 16 19 19
20 22 24 22 19 19 18 17 16 15 13 13 14 16 15 15 13 11 9 8 8 10 10 10 9 8 6 4 4 5 6 6 3 4 6 6 6 10 11 13 15 16 17 18
17 18 19 20 19 18 18 17 15 14 12 14 14 13 11 9 8 8 8 9 11 11 10 9 8 6 5 2 1 2 2 4 5 7 7 6 6 8 10 12 14 17 17 19
20 19 21 20 18 18 16 15 14 16 14 11 10 8 7 8 8 9 10 10 10 11 8 8 8 7 6 3 2 2 3 4 4 5 4 5 9 9 10 11 15 18 19 21
21 19 21 19 21 18 13 15 15 13 11 9 7 6 6 6 7 8 8 7 4 8 9 8 6 4 4 3 4 3 4 4 4 5 6 8 8 9 10 13 17 17 17 19
15 16 16 15 13 15 14 11 12 10 9 7 6 4 4 4 5 7 9 9 7 8 7 5 2 2 3 3 6 5 5 5 5 4 6 6 8 10 12 13 14 17 19 18
14 13 13 14 13 13 12 12 11 10 9 8 6 4 5 5 6 5 2 3 9 11 7 6 5 4 4 6 5 6 6 5 4 5 5 4 9 12 15 17 18 17 22 22
14 13 13 15 14 14 13 12 12 11 10 9 8 8 7 6 4 6 7 8 11 10 7 6 6 7 9 6 6 6 5 4 5 7 5 6 10 13 14 17 19 20 17 18
16 15 15 15 15 14 11 11 11 10 10 10 9 7 6 8 7 5 10 9 10 8 5 9 9 13 9 9 9 9 9 9 8 8 9 9 12 14 14 16 18 17 17 16
15 16 16 16 14 11 12 10 10 10 10 9 8 6 5 5 6 8 8 8 11 9 10 12 13 9 7 8 8 8 9 9 10 12 10 10 11 11 14 14 14 15 15 14
11 12 12 12 11 11 10 9 10 9 9 7 7 5 5 5 7 6 7 8 8 6 11 12 10 6 6 6 6 5 7 9 8 8 11 12 12 11 12 12 13 15 14 13
9 4 8 8 9 8 9 8 7 8 7 6 7 6 5 5 7 7 8 7 9 8 10 10 9 6 6 6 6 6 6 7 4 8 9 10 11 10 11 11 13 13 12 11
Wind_Direction
232 254 215 204 210 206 222 229 230 232 233 232 248 235 248 249 264 262 236 220 199 197 190 190 191 193 194 194 196 198 202 208 215 218 218 217 216 216 214 203 196 195 203 204
226 229 244 235 230 220 218 228 238 245 252 226 236 247 248 243 251 250 236 232 205 193 189 190 188 187 190 186 184 186 194 203 206 207 203 204 201 202 196 190 194 193 193 196
224 225 231 241 230 227 233 230 233 238 241 248 233 247 246 250 262 259 255 235 204 196 189 187 186 179 170 175 173 178 181 185 184 179 174 184 183 182 183 195 194 188 188 198
224 213 223 249 227 226 240 236 233 241 240 234 238 253 252 239 263 271 263 261 214 191 180 176 172 167 155 159 162 163 162 154 155 160 166 168 172 172 180 179 180 181 189 196
222 223 233 246 202 226 220 234 232 234 231 238 238 244 246 253 252 253 261 240 198 180 168 161 159 155 147 147 154 154 146 150 155 158 155 155 162 170 170 175 177 183 192 198
212 236 234 234 236 213 232 240 229 228 230 227 231 236 247 248 262 233 232 182 174 168 150 147 144 144 139 141 146 138 133 137 149 158 161 161 161 161 170 187 183 184 193 202
227 246 250 248 244 192 222 237 222 227 222 227 225 229 253 92 126 144 159 160 141 146 136 135 138 136 138 143 133 133 143 155 165 169 167 171 164 156 171 185 183 190 186 193
222 228 232 222 183 217 232 235 261 263 269 241 235 129 135 113 119 129 129 134 126 126 123 123 128 133 127 106 111 114 124 153 166 178 159 167 157 138 164 179 181 180 186 196
209 219 308 208 232 214 269 282 252 264 231 217 145 148 133 126 124 123 122 121 117 112 105 99 103 109 103 103 104 106 116 143 164 167 153 172 145 148 162 178 186 196 197 202
237 211 219 224 237 251 268 260 251 198 145 142 134 132 124 120 119 115 110 109 108 100 90 86 85 83 92 99 102 104 105 138 185 164 168 164 150 169 171 180 198 200 196 205
244 245 203 215 228 241 225 182 149 139 137 137 135 130 125 122 118 114 109 107 102 97 92 87 85 85 87 95 105 114 138 157 161 157 165 151 147 153 176 163 201 203 196 210
235 213 213 210 202 182 159 157 152 141 134 136 136 132 127 122 120 110 99 98 95 95 96 93 88 86 83 90 114 134 134 122 110 185 150 161 159 144 154 149 163 158 166 168
279 309 228 228 168 163 150 147 147 141 130 129 125 122 117 116 113 113 116 115 114 113 113 110 101 95 94 91 103 131 131 132 128 180 173 158 156 161 149 136 159 177 162 159
262 261 208 171 163 154 143 129 121 123 124 119 124 122 119 117 126 119 119 121 121 121 121 120 118 118 124 118 123 97 92 145 131 153 177 177 162 156 162 167 149 118 129 145
225 207 182 150 142 141 136 136 131 124 120 118 118 119 120 122 120 118 122 124 120 121 127 140 113 120 125 114 127 136 159 158 164 163 168 158 152 169 181 174 145 139 136 148
183 145 139 136 136 137 134 128 121 119 120 119 117 113 117 118 115 118 130 138 143 155 138 115 105 114 93 137 163 151 149 153 152 154 146 173 183 193 174 164 162 161 167 158
165 152 140 131 129 127 122 115 115 119 123 117 119 125 126 121 124 134 133 134 147 141 125 117 118 115 128 161 206 164 136 134 155 196 193 193 189 182 187 188 173 171 169 163
128 127 127 119 113 108 103 100 98 96 94 98 104 109 117 115 111 116 131 147 147 138 121 122 128 129 116 123 278 97 141 152 178 220 185 203 190 193 195 181 180 169 160 150
112 105 100 97 99 98 100 97 93 91 90 94 104 105 111 111 118 115 128 143 146 140 129 128 120 103 98 108 139 183 166 172 170 189 195 137 179 188 174 167 163 171 159 161
92 90 86 86 88 92 97 94 95 90 86 94 108 119 126 124 127 127 136 148 102 99 142 137 119 114 122 160 165 182 154 154 167 163 178 185 174 179 168 168 163 157 152 160
89 85 85 85 84 83 84 90 97 95 93 93 112 135 151 154 148 154 169 177 138 138 133 123 150 147 157 162 186 183 175 189 191 189 200 183 171 158 148 141 137 144 150 151
82 84 86 88 91 90 86 88 91 90 86 88 90 116 136 141 149 152 163 190 154 152 165 165 160 171 154 171 174 159 167 178 188 201 198 193 153 164 154 154 153 153 153 153
72 86 98 93 90 91 89 87 86 86 88 86 83 100 114 121 142 159 142 146 153 163 171 140 149 154 152 172 156 157 157 168 154 113 142 129 139 139 148 150 147 153 162 162
94 93 92 95 98 98 94 95 96 90 89 88 84 96 119 120 101 88 117 141 144 153 133 133 135 138 141 132 131 134 131 124 132 125 121 115 123 134 141 146 151 157 168 175
99 96 96 97 92 90 92 100 107 100 96 99 103 97 82 53 77 127 132 139 155 162 139 143 136 136 160 139 130 127 128 128 120 130 135 146 150 158 153 163 160 163 166 168
73 73 74 65 67 71 76 74 72 65 96 96 88 77 73 84 115 133 136 143 151 157 151 158 162 171 147 147 144 139 133 131 151 134 141 145 142 144 153 159 155 162 167 169
86 79 96 88 69 62 55 54 66 86 74 85 105 125 124 115 113 120 127 137 145 159 159 165 173 188 190 180 173 172 177 166 165 163 156 153 156 159 160 163 166 168 172 175